CW8721 Weather Reports


time (UTC)temp
C
wind
direction
speed
KPH
gust
KPH
rain 1hr
cm
rain 24hr
cm
rain mn
cm
humidity
%
barometer
mb
20260505122503 12 170 0.0 3.2 0.00 0.00 0.00 61 1001.0
20260505122003 13 170 0.0 3.2 0.00 0.00 0.00 59 1001.0
20260505121503 13 171 0.0 4.8 0.00 0.00 0.00 58 1000.9
20260505121002 12 171 0.0 4.8 0.00 0.00 0.00 58 1000.9
20260505120505 13 171 3.2 4.8 0.00 0.00 0.00 59 1000.9
20260505120002 12 157 1.6 4.8 0.00 0.00 0.00 60 1000.9
20260505115501 12 173 3.2 4.8 0.00 0.00 0.00 60 1000.9
20260505115001 12 176 0.0 6.4 0.00 0.00 0.00 62 1000.9
20260505114501 12 132 1.6 8.0 0.00 0.00 0.00 63 1000.8
20260505114000 12 144 1.6 8.0 0.00 0.00 0.00 63 1000.7
20260505113501 12 166 1.6 8.0 0.00 0.00 0.00 63 1000.7
20260505113003 12 169 3.2 6.4 0.00 0.00 0.00 64 1000.6
20260505112603 12 165 1.6 6.4 0.00 0.00 0.00 65 1000.6
20260505112100 12 151 1.6 6.4 0.00 0.00 0.00 65 1000.6
20260505111559 12 161 1.6 8.0 0.00 0.00 0.00 65 1000.7
20260505111059 12 159 1.6 6.4 0.00 0.00 0.00 64 1000.6
20260505110558 12 154 1.6 6.4 0.00 0.00 0.00 64 1000.6
20260505102056 13 101 0.0 3.2 0.00 0.00 0.00 65 1001.1
20260505101558 13 159 0.0 1.6 0.00 0.00 0.00 65 1001.1
20260505101056 13 192 0.0 1.6 0.00 0.00 0.00 65 1001.1
20260505100556 13 221 0.0 1.6 0.00 0.00 0.00 65 1001.1
20260505100059 13 221 0.0 1.6 0.00 0.00 0.00 67 1001.2
20260505095556 13 239 0.0 0.0 0.00 0.00 0.00 68 1001.2
20260505095055 13 240 0.0 0.0 0.00 0.00 0.00 70 1001.3
20260505094555 13 240 0.0 0.0 0.00 0.00 0.00 70 1001.2
20260505094054 12 240 0.0 6.4 0.00 0.00 0.00 69 1001.2
20260505093554 13 240 0.0 6.4 0.00 0.00 0.00 68 1001.3
20260505093052 13 240 0.0 4.8 0.00 0.00 0.00 68 1001.3
20260505092556 13 236 0.0 4.8 0.00 0.00 0.00 66 1001.3
20260505092051 13 236 0.0 4.8 0.00 0.00 0.00 66 1001.2
20260505091550 13 236 0.0 4.8 0.00 0.00 0.00 65 1001.2
20260505091052 13 165 0.0 0.0 0.00 0.00 0.00 64 1001.1
20260505090550 13 164 0.0 1.6 0.00 0.00 0.00 65 1001.1
20260505090101 13 164 0.0 1.6 0.00 0.00 0.00 65 1001.2
20260505085549 13 190 0.0 3.2 0.00 0.00 0.00 64 1001.2
20260505085049 13 190 0.0 3.2 0.00 0.00 0.00 64 1001.2
20260505084552 13 191 1.6 4.8 0.00 0.00 0.00 63 1001.2
20260505084047 13 193 1.6 4.8 0.00 0.00 0.00 63 1001.1
20260505083549 13 162 1.6 9.7 0.00 0.00 0.00 64 1001.1
20260505083055 13 186 3.2 9.7 0.00 0.00 0.00 63 1001.1
20260505082546 13 157 1.6 9.7 0.00 0.00 0.00 63 1001.1
20260505082047 13 156 3.2 8.0 0.00 0.00 0.00 63 1001.1
20260505081547 13 145 3.2 11.3 0.00 0.00 0.00 63 1001.2
20260505081046 13 171 6.4 11.3 0.00 0.00 0.00 63 1001.2
20260505080544 13 174 4.8 11.3 0.00 0.00 0.00 62 1001.2
20260505080043 13 170 1.6 11.3 0.00 0.00 0.00 60 1001.1
20260505075544 14 169 1.6 8.0 0.00 0.00 0.00 57 1001.2
20260505075042 14 149 4.8 9.7 0.00 0.00 0.00 53 1001.2
20260505074541 14 160 1.6 8.0 0.00 0.00 0.00 52 1001.2
20260505074041 15 160 0.0 4.8 0.00 0.00 0.00 51 1001.3
20260505073543 15 185 3.2 6.4 0.00 0.00 0.00 51 1001.3
20260505073041 15 154 1.6 6.4 0.00 0.00 0.00 51 1001.3
20260505072544 15 164 3.2 8.0 0.00 0.00 0.00 50 1001.3
20260505072039 15 174 1.6 12.9 0.00 0.00 0.00 50 1001.2
20260505071538 14 177 3.2 12.9 0.00 0.00 0.00 50 1000.9
20260505071038 14 162 4.8 14.5 0.00 0.00 0.00 51 1000.9
20260505070538 14 170 4.8 19.3 0.00 0.00 0.00 52 1000.8
20260505070042 14 180 6.4 14.5 0.00 0.00 0.00 52 1000.7
20260505065536 14 181 4.8 14.5 0.00 0.00 0.00 52 1000.7
20260505065036 14 155 6.4 20.9 0.00 0.00 0.00 52 1000.7
20260505064534 14 173 4.8 17.7 0.00 0.00 0.00 52 1000.5
20260505064033 15 109 8.0 17.7 0.00 0.00 0.00 52 1000.5
20260505063533 15 151 6.4 19.3 0.00 0.00 0.00 52 1000.4
20260505063038 15 142 6.4 19.3 0.00 0.00 0.00 51 1000.5
20260505062533 15 177 6.4 17.7 0.00 0.00 0.00 51 1000.4
20260505062031 15 178 8.0 17.7 0.00 0.00 0.00 51 1000.4
20260505061536 15 179 8.0 19.3 0.00 0.00 0.00 51 1000.4
20260505061032 15 169 8.0 19.3 0.00 0.00 0.00 52 1000.4
20260505060528 15 171 8.0 19.3 0.00 0.00 0.00 52 1000.4
20260505060032 15 166 8.0 25.7 0.00 0.00 0.00 52 1000.4
20260505055527 15 162 8.0 25.7 0.00 0.00 0.00 52 1000.4
20260505055027 15 153 6.4 17.7 0.00 0.00 0.00 52 1000.5
20260505054536 15 176 6.4 20.9 0.00 0.00 0.00 52 1000.4
20260505054029 15 188 6.4 24.1 0.00 0.00 0.00 52 1000.5
20260505053526 15 141 4.8 24.1 0.00 0.00 0.00 52 1000.6
20260505053033 15 179 6.4 17.7 0.00 0.00 0.00 53 1000.5
20260505052525 15 155 6.4 19.3 0.00 0.00 0.00 52 1000.6
20260505052026 15 152 6.4 19.3 0.00 0.00 0.00 51 1000.4
20260505051524 16 101 8.0 17.7 0.00 0.00 0.00 50 1000.6
20260505051024 16 131 6.4 14.5 0.00 0.00 0.00 49 1000.4
20260505050527 16 140 1.6 12.9 0.00 0.00 0.00 49 1000.5
20260505041521 17 114 1.6 9.7 0.00 0.00 0.00 38 999.8
20260505041020 17 163 3.2 12.9 0.00 0.00 0.00 38 999.5
20260505040520 17 171 3.2 14.5 0.00 0.00 0.00 39 999.5
20260505040020 17 181 3.2 14.5 0.00 0.00 0.00 39 999.4
20260505035519 17 160 3.2 6.4 0.00 0.00 0.00 39 999.3
20260505035019 17 165 3.2 9.7 0.00 0.00 0.00 40 999.1
20260505034522 17 169 4.8 9.7 0.00 0.00 0.00 40 999.0
20260505034020 18 177 4.8 9.7 0.00 0.00 0.00 40 999.0
20260505033520 18 176 6.4 9.7 0.00 0.00 0.00 40 998.9
20260505033021 18 180 6.4 11.3 0.00 0.00 0.00 40 998.9
20260505032521 18 177 6.4 9.7 0.00 0.00 0.00 39 999.0
20260505032019 18 169 4.8 11.3 0.00 0.00 0.00 38 999.0
20260505031518 18 159 1.6 4.8 0.00 0.00 0.00 38 999.0
20260505031018 18 182 1.6 8.0 0.00 0.00 0.00 37 998.8
20260505030518 18 172 3.2 8.0 0.00 0.00 0.00 38 998.8
20260505030025 18 170 3.2 6.4 0.00 0.00 0.00 37 999.0
20260505025518 18 153 3.2 8.0 0.00 0.00 0.00 37 998.9
20260505025017 18 138 0.0 12.9 0.00 0.00 0.00 37 998.8
20260505024518 18 149 0.0 16.1 0.00 0.00 0.00 36 998.7
20260505024017 18 147 3.2 16.1 0.00 0.00 0.00 36 998.6
20260505023517 18 193 3.2 9.7 0.00 0.00 0.00 36 998.5
20260505023017 18 147 3.2 9.7 0.00 0.00 0.00 36 998.5
20260505022520 19 168 1.6 8.0 0.00 0.00 0.00 36 998.5
20260505022017 19 150 1.6 8.0 0.00 0.00 0.00 35 998.4
20260505021517 19 163 3.2 11.3 0.00 0.00 0.00 35 998.5
20260505021020 19 139 3.2 8.0 0.00 0.00 0.00 35 998.4
20260505020516 18 155 0.0 1.6 0.00 0.00 0.00 36 998.2
20260505020016 18 147 0.0 3.2 0.00 0.00 0.00 37 998.1
20260505015516 18 147 0.0 3.2 0.00 0.00 0.00 37 998.3
20260505015016 19 151 0.0 1.6 0.00 0.00 0.00 37 998.3
20260505014517 19 157 0.0 1.6 0.00 0.00 0.00 37 998.3
20260505014017 19 157 0.0 1.6 0.00 0.00 0.00 37 998.3
20260505013514 19 134 0.0 3.2 0.00 0.00 0.00 39 998.5
20260505013014 19 134 0.0 6.4 0.00 0.00 0.00 34 998.5
20260505012514 20 121 0.0 6.4 0.00 0.00 0.00 34 998.5
20260505012016 20 152 0.0 6.4 0.00 0.00 0.00 33 998.6
20260505011518 20 99 1.6 11.3 0.00 0.00 0.00 33 998.5
20260505011012 20 110 1.6 11.3 0.00 0.00 0.00 33 998.6
20260505010512 20 104 1.6 9.7 0.00 0.00 0.00 34 998.6
20260505010012 20 117 0.0 12.9 0.00 0.00 0.00 33 998.7
20260505005514 20 116 1.6 14.5 0.00 0.00 0.00 33 998.7
20260505005012 20 103 4.8 14.5 0.00 0.00 0.00 32 998.6
20260505004523 20 105 1.6 12.9 0.00 0.00 0.00 33 998.7
20260505004010 20 84 3.2 16.1 0.00 0.00 0.00 33 998.7
20260505003515 20 88 3.2 17.7 0.00 0.00 0.00 34 998.7
20260505003011 20 66 6.4 20.9 0.00 0.00 0.00 33 998.7
20260505002510 20 84 6.4 20.9 0.00 0.00 0.00 33 998.9
20260505002009 20 103 3.2 16.1 0.00 0.00 0.00 33 998.8
20260505001508 20 130 4.8 19.3 0.00 0.00 0.00 34 998.8
20260505001008 20 59 9.7 20.9 0.00 0.00 0.00 35 998.9
20260505000507 20 92 9.7 20.9 0.00 0.00 0.00 34 998.9
20260505000011 20 37 9.7 19.3 0.00 0.00 0.00 34 999.0
20260504235507 20 90 6.4 16.1 0.00 0.00 0.00 35 999.1
20260504235007 20 93 3.2 17.7 0.00 0.00 0.00 35 999.2
20260504234507 20 92 4.8 17.7 0.00 0.00 0.00 34 999.2
20260504234006 20 62 4.8 17.7 0.00 0.00 0.00 34 999.2
20260504233506 20 58 6.4 17.7 0.00 0.00 0.00 33 999.3
20260504233007 21 182 6.4 20.9 0.00 0.00 0.00 32 999.3
20260504232507 21 62 6.4 20.9 0.00 0.00 0.00 30 999.3
20260504232006 21 139 1.6 12.9 0.00 0.00 0.00 30 999.1
20260504231519 21 106 3.2 12.9 0.00 0.00 0.00 31 999.1
20260504231004 21 20 1.6 19.3 0.00 0.00 0.00 32 999.0
20260504230504 21 137 6.4 19.3 0.00 0.00 0.00 32 999.1
20260504230005 21 70 6.4 19.3 0.00 0.00 0.00 33 999.2
20260504225507 21 144 4.8 19.3 0.00 0.00 0.00 33 999.1
20260504225004 21 88 3.2 17.7 0.00 0.00 0.00 33 999.1
20260504224503 21 120 6.4 20.9 0.00 0.00 0.00 31 999.1
20260504224003 22 169 9.7 20.9 0.00 0.00 0.00 29 999.1
20260504223503 21 101 0.0 3.2 0.00 0.00 0.00 28 999.0
20260504223003 21 153 0.0 1.6 0.00 0.00 0.00 27 999.0
20260504222505 21 196 0.0 3.2 0.00 0.00 0.00 26 999.0
20260504222003 22 214 0.0 3.2 0.00 0.00 0.00 26 999.0
20260504221504 21 215 1.6 16.1 0.00 0.00 0.00 27 998.9
20260504221002 21 212 3.2 16.1 0.00 0.00 0.00 28 999.0
20260504220502 21 250 6.4 17.7 0.00 0.00 0.00 27 998.9
20260504220002 21 228 6.4 17.7 0.00 0.00 0.00 26 998.9
20260504215503 22 210 1.6 6.4 0.00 0.00 0.00 26 999.1
20260504215001 21 206 3.2 24.1 0.00 0.00 0.00 26 999.1
20260504214501 21 198 9.7 24.1 0.00 0.00 0.00 27 999.0
20260504214003 22 252 4.8 17.7 0.00 0.00 0.00 26 999.0
20260504213601 22 238 4.8 19.3 0.00 0.00 0.00 26 999.1
20260504213105 22 277 9.7 20.9 0.00 0.00 0.00 28 999.0
20260504212559 22 269 11.3 20.9 0.00 0.00 0.00 28 999.1
20260504212100 22 264 9.7 16.1 0.00 0.00 0.00 29 999.1
20260504211604 22 313 8.0 24.1 0.00 0.00 0.00 27 999.2
20260504211058 22 267 8.0 19.3 0.00 0.00 0.00 28 999.3
20260504210557 22 325 6.4 19.3 0.00 0.00 0.00 28 999.4
20260504210104 22 302 3.2 8.0 0.00 0.00 0.00 29 999.5
20260504205558 22 48 1.6 6.4 0.00 0.00 0.00 28 999.5
20260504205058 22 238 0.0 17.7 0.00 0.00 0.00 27 999.7
20260504204636 22 244 3.2 17.7 0.00 0.00 0.00 28 999.7
20260504204055 22 257 3.2 9.7 0.00 0.00 0.00 28 999.6
20260504203555 22 51 1.6 14.5 0.00 0.00 0.00 27 999.7
20260504203055 22 299 6.4 17.7 0.00 0.00 0.00 28 999.7
20260504202555 22 325 9.7 19.3 0.00 0.00 0.00 26 999.8
20260504202055 22 292 14.5 20.9 0.00 0.00 0.00 27 999.8
20260504201554 22 304 12.9 20.9 0.00 0.00 0.00 27 999.7
20260504201054 22 311 9.7 20.9 0.00 0.00 0.00 28 999.7
20260504200555 22 323 11.3 24.1 0.00 0.00 0.00 27 999.8
20260504200056 22 325 11.3 20.9 0.00 0.00 0.00 27 999.9
20260504195552 23 327 9.7 19.3 0.00 0.00 0.00 27 999.8
20260504195056 23 14 8.0 22.5 0.00 0.00 0.00 28 999.8
20260504194555 23 328 9.7 22.5 0.00 0.00 0.00 27 999.9
20260504194051 23 336 11.3 19.3 0.00 0.00 0.00 27 1000.0
20260504193552 23 308 11.3 19.3 0.00 0.00 0.00 28 1000.1
20260504193050 23 311 11.3 20.9 0.00 0.00 0.00 29 1000.1
20260504192550 23 338 9.7 22.5 0.00 0.00 0.00 29 1000.2
20260504192048 22 309 16.1 22.5 0.00 0.00 0.00 29 1000.3
20260504191547 21 313 12.9 22.5 0.00 0.00 0.00 30 1000.3
20260504191046 22 308 12.9 25.7 0.00 0.00 0.00 30 1000.2
20260504190546 22 330 17.7 25.7 0.00 0.00 0.00 29 1000.4
20260504190055 22 245 3.2 12.9 0.00 0.00 0.00 30 1000.3
20260504185544 21 294 0.0 12.9 0.00 0.00 0.00 31 1000.4
20260504185044 21 298 1.6 11.3 0.00 0.00 0.00 31 1000.5
20260504184559 21 293 4.8 9.7 0.00 0.00 0.00 30 1000.5
20260504184043 21 196 0.0 4.8 0.00 0.00 0.00 33 1000.6
20260504183543 21 196 0.0 14.5 0.00 0.00 0.00 28 1000.6
20260504183053 21 266 3.2 14.5 0.00 0.00 0.00 29 1000.6
20260504182546 22 263 3.2 9.7 0.00 0.00 0.00 28 1000.6
20260504182042 22 90 0.0 12.9 0.00 0.00 0.00 28 1000.7
20260504181541 22 44 3.2 12.9 0.00 0.00 0.00 29 1000.9
20260504181040 22 129 0.0 6.4 0.00 0.00 0.00 28 1000.8
20260504180538 22 132 1.6 11.3 0.00 0.00 0.00 28 1001.0
20260504180040 23 140 1.6 11.3 0.00 0.00 0.00 27 1001.1
20260504175536 22 174 0.0 8.0 0.00 0.00 0.00 29 1001.1
20260504175037 22 159 0.0 8.0 0.00 0.00 0.00 29 1001.0
20260504174534 22 148 0.0 4.8 0.00 0.00 0.00 29 1001.1
20260504174033 21 155 1.6 4.8 0.00 0.00 0.00 29 1001.1
20260504173533 21 150 0.0 6.4 0.00 0.00 0.00 30 1001.3
20260504173031 21 127 1.6 8.0 0.00 0.00 0.00 29 1001.2
20260504172529 21 192 1.6 11.3 0.00 0.00 0.00 30 1001.4
20260504172029 21 122 1.6 8.0 0.00 0.00 0.00 30 1001.3
20260504171539 21 155 1.6 14.5 0.00 0.00 0.00 30 1001.2
20260504171029 21 163 1.6 14.5 0.00 0.00 0.00 29 1001.4
20260504170528 21 157 1.6 11.3 0.00 0.00 0.00 31 1001.4
20260504151058 18 167 4.8 14.5 0.00 0.00 0.00 37 1001.8
20260504150600 18 134 3.2 14.5 0.00 0.00 0.00 37 1001.8
20260504141047 16 129 3.2 9.7 0.00 0.00 0.00 41 1002.2
20260504140544 16 171 1.6 8.0 0.00 0.00 0.00 42 1002.2
20260504130535 15 170 4.8 8.0 0.00 0.00 0.00 45 1002.3